This demonstration page uses our WeatherBlox Daily Observations layout. Learn more.

Left ArrowRight Arrow

38.83388, -104.82136

Hourly Observations for April 25, 2022

Temp ( °F °C ) Dew Point ( °F °C ) Humidity (%) Winds ( mph kmh ) Pressure ( in mb ) Visibility ( mi km ) Precip ( " mm )
12:00 am 00:00 Mostly Clear with Snow N/A N/A N/A W 14 22 N/A 5 8 0.00 0.00
12:04 am 00:04 Partly Cloudy with Isolated Snow Showers 30 -1 30 -1 100 100 W 12 19 29.96 1015 1 2 0.00 0.00
12:26 am 00:26 undefined N/A N/A N/A W 14 22 N/A 1 2 0.00 0.00
12:27 am 00:27 Partly Cloudy with Isolated Snow Showers N/A N/A N/A W 14 22 N/A 1 2 0.00 0.00
12:39 am 00:39 undefined N/A N/A N/A W 15 24 N/A N/A 0.00 0.00
12:40 am 00:40 Partly Cloudy with Isolated Snow Showers N/A N/A N/A W 14 22 N/A N/A 0.00 0.00
12:58 am 00:58 Partly Cloudy with Isolated Snow Showers 29 -1.9 25 -3.8 87 87 WSW 15 24 29.96 1015 2 4 0.00 0.00
1:08 am 01:08 Cloudy with Light Snow 28 -2 25 -4 86 86 WSW 17 28 29.96 1015 3 4 0.00 0.00
1:28 am 01:28 Cloudy with Light Snow 30 -1 19 -7 64 64 WSW 18 30 29.96 1015 9 14 0.00 0.00
1:58 am 01:58 Cloudy with Light Snow 31 -0.6 19 -7 62 62 WSW 16 26 29.95 1014 9 14 0.00 0.00
2:58 am 02:58 Cloudy with Light Snow 31 -0.4 21 -6.2 65 65 WSW 13 20 29.95 1014 9 14 0.00 0.00
3:01 am 03:01 Cloudy 32 0 21 -6 64 64 W 9 15 29.95 1014 9 14 0.00 0.00
3:58 am 03:58 Cloudy 30 -1.3 21 -5.9 71 71 Calm 29.94 1014 10 16 0.00 0.00
4:58 am 04:58 Cloudy 31 -0.6 22 -5.8 68 68 WSW 3 6 30.00 1016 10 16 0.00 0.00
5:58 am 05:58 Cloudy 30 -1.1 11 -11.5 46 46 S 5 7 29.99 1016 10 16 0.00 0.00
6:58 am 06:58 Mostly Cloudy 30 -1 16 -9.1 55 55 Calm 30.31 1026 10 16 0.00 0.00
7:58 am 07:58 undefined 33 0.5 25 -4 72 72 NE 3 6 30.06 1018 10 16 0.00 0.00
8:58 am 08:58 Sunny 35 1.5 24 -4.2 66 66 ENE 7 11 30.08 1019 10 16 0.00 0.00
9:58 am 09:58 Sunny 38 3.3 17 -8.1 43 43 ENE 10 17 30.08 1019 10 16 0.00 0.00
10:58 am 10:58 Sunny 43 5.9 21 -6 42 42 ENE 9 15 30.09 1019 10 16 0.00 0.00
11:58 am 11:58 Sunny 46 7.6 21 -6.2 37 37 NE 10 17 30.10 1019 10 16 0.00 0.00
12:00 pm 12:00 Sunny 45 7 19 -7 37 37 E 13 20 30.09 1019 10 16 0.00 0.00
12:34 pm 12:34 Sunny 46 8 21 -6 37 37 E 16 26 30.18 1022 10 16 0.00 0.00
12:55 pm 12:55 Mostly Sunny 46 8 21 -6 37 37 E 17 28 30.10 1019 10 16 0.00 0.00
12:58 pm 12:58 Mostly Sunny 44 6.8 20 -6.5 38 38 ESE 14 22 30.10 1019 10 16 0.00 0.00
1:58 pm 13:58 Mostly Cloudy 46 7.9 23 -5.2 39 39 E 9 15 30.09 1019 10 16 0.00 0.00
2:58 pm 14:58 Mostly Cloudy 45 7 22 -5.7 40 40 ENE 6 9 30.06 1018 10 16 0.00 0.00
3:58 pm 15:58 Partly Cloudy 46 7.9 22 -5.6 38 38 E 3 6 30.08 1019 10 16 0.00 0.00
4:58 pm 16:58 Mostly Cloudy 46 7.9 23 -4.9 40 40 ENE 6 9 30.05 1018 10 16 0.00 0.00
5:58 pm 17:58 Cloudy 46 7.6 24 -4.2 43 43 Calm 30.06 1018 10 16 0.00 0.00
6:58 pm 18:58 Mostly Cloudy 45 7.2 24 -4.2 45 45 Calm 30.05 1018 10 16 0.00 0.00
7:58 pm 19:58 Partly Cloudy 43 6 23 -4.8 46 46 ESE 8 13 30.06 1018 10 16 0.00 0.00
8:58 pm 20:58 Clear 41 5.2 26 -3.6 53 53 SE 8 13 30.05 1018 10 16 0.00 0.00
9:58 pm 21:58 Mostly Clear 41 4.9 26 -3.6 55 55 ESE 8 13 30.05 1018 10 16 0.00 0.00
10:58 pm 22:58 Partly Cloudy 40 4.7 26 -3.6 55 55 ESE 13 20 30.01 1016 10 16 0.00 0.00
11:58 pm 23:58 Cloudy 40 4.4 28 -2.2 63 63 E 13 20 30.01 1016 10 16 0.00 0.00

Powered by AerisWeather